{"data":{"norad_id":67416,"epoch":"2026-05-25T03:04:41.649312Z","epoch_age_seconds":59907,"freshness":"FRESH","line1":"1 67416U 26005N   26145.12825983  .00022434  00000+0  82192-3 0  9992","line2":"2 67416  43.0000 166.5703 0001253 261.5738  98.4971 15.27594136 20388","mean_motion":15.27594136,"eccentricity":0.0001253,"inclination_deg":43,"raan_deg":166.5703,"arg_perigee_deg":261.5738,"mean_anomaly_deg":98.4971,"bstar":0.00082192,"rev_number":2038,"period_min":94.265876391136,"perigee_km":482.14706678253,"apogee_km":483.86646941081,"semimajor_km":6861.1437680967,"source":"CELESTRAK","updated_at":"2026-05-25T13:38:21.554968Z"}}